Regional Weather Roundup
Issued by NWS

Home | Current Version | Previous Version | Text Only | Print | Product List | Glossary On
Versions: 1 2 3 4 5 6 7 8 9 10 11 12 13 14 15 16 17 18 19 20 21 22 23 24 25 26 27 28 29 30 31 32 33 34 35 36 37 38 39 40 41 42 43 44 45 46 47 48 49 50
000
ASUS43 KBIS 151010
RWRND

NORTH DAKOTA REGIONAL WEATHER ROUNDUP
NATIONAL WEATHER SERVICE BISMARCK ND
400 AM CST FRI DEC 15 2017

NOTE: "FAIR" INDICATES FEW OR NO CLOUDS BELOW 12,000 FEET WITH NO
SIGNIFICANT WEATHER AND/OR OBSTRUCTIONS TO VISIBILITY.


NDZ001>003-009>011-017-151100-
NORTHWEST NORTH DAKOTA

CITY           SKY/WX    TMP DP  RH WIND       PRES   REMARKS
WILLISTON      CLOUDY    28  22  78 S3        29.81F
MINOT          CLOUDY    30  22  72 SW7       29.83F
MINOT AFB      CLOUDY    28  22  78 SW7       29.82F
$$

NDZ018>021-031>035-040>046-151100-
SOUTHWEST NORTH DAKOTA

CITY           SKY/WX    TMP DP  RH WIND       PRES   REMARKS
BISMARCK       CLOUDY    29  24  82 W7        29.91F
DICKINSON      CLOUDY    26  22  84 SW7       29.83F WCI  18
GARRISON         N/A     27  23  85 W5        29.86F
HETTINGER ARPT CLOUDY    22  18  85 NW5       29.88F WCI  16
$$

NDZ004>008-012>016-024-026-027-054-151100-
NORTHEAST NORTH DAKOTA

CITY           SKY/WX    TMP DP  RH WIND       PRES   REMARKS
GRAND FORKS    CLOUDY    19  14  81 CALM      29.94F
GRND FRKS AFB  CLOUDY    18  12  78 CALM      29.93F
DEVILS LAKE    FLURRIES  22  20  92 S7        29.87F WCI  13
$$

NDZ022-023-025-028>030-036>039-047>053-151100-
SOUTHEAST NORTH DAKOTA

CITY           SKY/WX    TMP DP  RH WIND       PRES   REMARKS
FARGO          CLOUDY    20  17  88 N3        29.94F
JAMESTOWN      FLURRIES  23  22  96 SE8       29.87F WCI  14
$$





USA.gov is the U.S. government's official web portal to all federal, state and local government web resources and services.